Satellite-Ground Cal/Val Region Overpasses Predictions

Prediction of Satellite NPP Overpassing Cal/Val Region: PacNW

Region Location: (Latitude: 10.00, Longitude: 139.50) to (Latitude: 22.70, Longitude: 165.60).

Table of predicted overpasses for the next 14.0 days since TLE Epoch: 6/1/2014
Interval Starting Time Starting Location Ending Time Ending Location
1 06/02/2014 02:26:38 ( 10.03, 164.50) 06/02/2014 02:30:13 ( 22.65, 161.48)
2 06/02/2014 14:58:32 ( 22.65, 161.76) 06/02/2014 15:02:07 ( 10.03, 158.75)
3 06/03/2014 03:49:07 ( 10.04, 143.88) 06/03/2014 03:52:42 ( 22.66, 140.86)
4 06/03/2014 14:40:35 ( 18.89, 165.59) 06/03/2014 14:43:06 ( 10.02, 163.50)
5 06/03/2014 16:21:00 ( 22.70, 141.16) 06/03/2014 16:22:55 ( 15.95, 139.51)
6 06/04/2014 03:30:07 ( 10.05, 148.64) 06/04/2014 03:33:42 ( 22.67, 145.62)
7 06/04/2014 16:02:00 ( 22.69, 145.92) 06/04/2014 16:05:36 ( 10.01, 142.89)
8 06/05/2014 03:11:06 ( 10.00, 153.41) 06/05/2014 03:14:42 ( 22.68, 150.38)
9 06/05/2014 15:42:59 ( 22.67, 150.67) 06/05/2014 15:46:34 ( 10.06, 147.66)
10 06/06/2014 02:52:05 ( 10.01, 158.16) 06/06/2014 02:55:41 ( 22.69, 155.13)
11 06/06/2014 15:23:59 ( 22.66, 155.43) 06/06/2014 15:27:34 ( 10.04, 152.41)
12 06/07/2014 02:33:05 ( 10.03, 162.92) 06/07/2014 02:36:40 ( 22.65, 159.90)
13 06/07/2014 15:04:58 ( 22.65, 160.19) 06/07/2014 15:08:33 ( 10.03, 157.17)
14 06/08/2014 02:16:35 ( 18.90, 165.59) 06/08/2014 02:17:39 ( 22.66, 164.66)
15 06/08/2014 03:55:34 ( 10.04, 142.30) 06/08/2014 03:58:54 ( 21.78, 139.50)
16 06/08/2014 14:45:57 ( 22.70, 164.96) 06/08/2014 14:49:33 ( 10.02, 161.93)
17 06/08/2014 16:27:27 ( 22.70, 139.58) 06/08/2014 16:27:32 ( 22.41, 139.51)
18 06/09/2014 03:36:34 ( 10.05, 147.06) 06/09/2014 03:40:09 ( 22.67, 144.04)
19 06/09/2014 16:08:26 ( 22.69, 144.34) 06/09/2014 16:12:02 ( 10.01, 141.31)
20 06/10/2014 03:17:32 ( 10.00, 151.83) 06/10/2014 03:21:08 ( 22.68, 148.80)
21 06/10/2014 15:49:26 ( 22.67, 149.09) 06/10/2014 15:53:01 ( 10.05, 146.08)
22 06/11/2014 02:58:32 ( 10.02, 156.58) 06/11/2014 03:02:08 ( 22.70, 153.55)
23 06/11/2014 15:30:25 ( 22.66, 153.85) 06/11/2014 15:34:00 ( 10.04, 150.83)
24 06/12/2014 02:39:31 ( 10.03, 161.34) 06/12/2014 02:43:06 ( 22.65, 158.32)
25 06/12/2014 15:11:25 ( 22.65, 158.61) 06/12/2014 15:15:00 ( 10.03, 155.59)
26 06/13/2014 02:21:08 ( 12.22, 165.59) 06/13/2014 02:24:06 ( 22.67, 163.08)
27 06/13/2014 04:02:01 ( 10.05, 140.72) 06/13/2014 04:03:30 ( 15.28, 139.50)
28 06/13/2014 14:52:24 ( 22.69, 163.38) 06/13/2014 14:56:00 ( 10.01, 160.35)
29 06/14/2014 03:42:59 ( 10.00, 145.49) 06/14/2014 03:46:35 ( 22.68, 142.46)
30 06/14/2014 14:36:23 ( 12.11, 165.59) 06/14/2014 14:36:58 ( 10.06, 165.12)
31 06/14/2014 16:14:53 ( 22.67, 142.76) 06/14/2014 16:18:28 ( 10.06, 139.74)
32 06/15/2014 03:23:59 ( 10.02, 150.25) 06/15/2014 03:27:34 ( 22.64, 147.23)


NCC Satellite Cal/Val Overpasses Prediction Service
